Other Public Products
Issued by NWS Grand Forks, ND

Home | Current Version | Previous Version | Text Only | Print | Product List | Glossary Off
Versions: 1 2 3 4 5 6 7 8 9 10 11 12 13 14 15 16 17 18 19 20 21 22 23 24 25 26 27 28 29 30 31 32 33 34 35 36 37 38 39 40 41 42 43 44 45 46 47 48 49 50

000
FPUS83 KFGF 112010
OPUFGF
PRAIRIE TO PINES WEATHER ROUNDUP
NATIONAL WEATHER SERVICE EASTERN NORTH DAKOTA/GRAND FORKS ND
200 PM CST THU FEB 11 2016

 **SATELLITE DATA USED TO AUGMENT SKY COVER AT AUTOMATED STATIONS**
 *****  WEATHER ACROSS EASTERN NORTH DAKOTA  *****

CITY           SKY/WX    TMP DP  RH WIND       PRES   REMARKS
GRAND FORKS    CLOUDY    14   5  67 W6        30.22F WCI   5
GRAND FORKS AF FLURRIES  14   5  67 W6        30.22S WCI   5
GRAND CITY NWS NOT AVBL
BUXTON         NOT AVBL
DEVILS LAKE    FLURRIES  12   6  77 VRB5      30.18F WCI   4
FARGO          CLOUDY    15  -2  46 VRB3      30.21F
WAHPETON ARPT  CLOUDY    14   7  73 S6        30.21F WCI   5
$$

 *****  WEATHER ACROSS CENTRAL AND WESTERN NORTH DAKOTA  *****

CITY           SKY/WX    TMP DP  RH WIND       PRES   REMARKS
JAMESTOWN      CLOUDY    16   9  74 CALM      30.15F
BISMARCK       LGT SNOW  26  18  71 NE5       30.14S WCI  20
MINOT          CLOUDY    20  11  68 N6        30.18R WCI  12
MINOT AFB      FLURRIES  19  14  80 CALM      30.18R
GARRISON         N/A     20  13  74 VRB5      30.14S WCI  13
WILLISTON      FLURRIES  27  19  72 NE7       30.17R WCI  19
DICKINSON      LGT SNOW  24  19  81 NE12      30.06S WCI  13
HETTINGER      LGT SNOW  31  27  85 NE10      30.04R FOG     WCI  22
$$

 *****  OTHER OBSERVATIONS NORTHEAST NORTH DAKOTA  *****

CITY           SKY/WX    TMP DP  RH WIND       PRES   REMARKS
WALHALLA       FAIR      12   9  85 N12       30.23S WCI  -2
LANGDON        CLOUDY    12   5  73 NW8       30.17S WCI   1
CAVALIER       LGT SNOW  14   7  73 N9        30.23S WCI   2
GRAFTON        CLOUDY    14   9  79 W6        30.24F WCI   5
CANDO          NOT AVBL
FORT TOTTEN      N/A     15   8  73 N3        29.95
ROLLA          CLOUDY    10   7  85 N10       30.16F WCI  -3
RUGBY          MOCLDY    14   7  73 N3        30.19R
 ***** THE ABOVE OBSERVATIONS ARE NON NWS ARE NOT QUALITY
        CONTROLLED AND MAY MIS-REPORT RAIN FOR SNOW...
$$

 *****  OTHER OBSERVATIONS SOUTHEAST NORTH DAKOTA *****

CITY           SKY/WX    TMP DP  RH WIND       PRES   REMARKS
COOPERSTOWN    NOT AVBL
VALLEY CITY    CLOUDY    12   9  85 SW5       30.18F WCI   4
OAKES          FLURRIES  16  12  86 CALM      30.16F
GWINNER        CLOUDY    18  10  73 E5        30.17F WCI  11
SHEYENNE NWR     N/A     15   5  66 CALM      29.95S
BUFFALO        NOT AVBL
WYNDMERE       NOT AVBL
 ***** THE ABOVE OBSERVATIONS ARE NON NWS ARE NOT QUALITY
       CONTROLLED AND MAY MIS-REPORT RAIN FOR SNOW...
$$

  *****  WEATHER ACROSS NORTHERN MINNESOTA  *****

CITY           SKY/WX    TMP DP  RH WIND       PRES   REMARKS
FLAG ISLAND    CLOUDY     5  -2  72 S6        30.15F WCI  -6
WARROAD        CLOUDY    10   1  67 SW10      30.17F WCI  -3
ROSEAU         MOSUNNY   10   3  72 W9        30.18F WCI  -2
HALLOCK        LGT SNOW  12   7  79 W6        30.22S WCI   3
THF RVR FALLS  CLOUDY    10   0  61 W8        30.20F WCI  -1
HALSTAD        NOT AVBL
FOSSTON        CLOUDY    10   1  67 SW6       30.19F WCI   1
BAUDETTE       CLOUDY    11  -5  48 W5        30.14F WCI   3
WASKISH        CLOUDY    10   0  61 SW9       30.16F WCI  -2
CROOKSTON      CLOUDY    10   3  72 W5        30.23F WCI   2
$$
  *****  WEATHER ACROSS CENTRAL AND WEST MINNESOTA  *****

CITY           SKY/WX    TMP DP  RH WIND       PRES   REMARKS
BEMIDJI        CLOUDY    11  -5  49 W8        30.16F WCI  -1
PARK RAPIDS    CLOUDY    13   0  56 SW7       30.16S WCI   3
WADENA         CLOUDY    14   1  57 SW9       30.17F WCI   2
DETROIT LAKES  CLOUDY    16   5  62 SW3       30.17F
MOORHEAD       CLOUDY    12   3  67 SW3       30.22F
FERGUS FALLS   CLOUDY    14   5  67 S8        30.23F WCI   3
ELBOW LAKE     CLOUDY    13   6  73 S10       30.19F HAZE    WCI   0
MORRIS MN      CLOUDY    12   7  79 S9        30.20F WCI   0
STAPLES        CLOUDY    12   0  57 SW5       30.18F WCI   4
WHEATON        CLOUDY    16  10  79 S8        30.22F WCI   5
$$
  *****  WEATHER ELSEWHERE ACROSS MINNESOTA  *****

CITY           SKY/WX    TMP DP  RH WIND       PRES   REMARKS
DULUTH         MOSUNNY   11  -5  48 W10       30.13F WCI  -3
INTRNTL FALLS  PTSUNNY   11  -6  46 W9        30.13F WCI  -2
ELY            MOSUNNY   10  -2  56 NW8       30.10F WCI  -1
CLOQUET        CLOUDY    10  -8  44 SW7       30.15F WCI   0
BRAINERD       CLOUDY    12  -2  53 SW7       30.19F WCI   1
HIBBING        MIX PCPN   9  -8  46 W9        30.13F WCI  -4
ALEXANDRIA     FLURRIES  13   5  70 SW10      30.18F WCI   0
SAINT CLOUD    CLOUDY    13   0  56 S8        30.22F WCI   2
MINNEAPOLIS    CLOUDY    16  -4  41 SW7       30.25F WCI   6
$$

  *****  WEATHER ACROSS SOUTH DAKOTA  *****

CITY           SKY/WX    TMP DP  RH WIND       PRES   REMARKS
SIOUX FALLS    LGT SNOW  17  12  80 S9        30.17F VSB 3/4 WCI   6
BROOKINGS      LGT SNOW  16  11  80 S9        30.14F VSB 1   WCI   4
WATERTOWN      LGT SNOW  17  12  80 S7        30.12F WCI   8
HURON          LGT SNOW  23  18  81 S8        30.13F WCI  14
SISSETON         N/A     15  10  80 S7        30.18F WCI   5
ABERDEEN       LGT SNOW  22  17  81 SE5       30.16F WCI  16
MITCHELL       LGT SNOW  22  19  89 SE9       30.13F FOG     WCI  12
PIERRE         CLOUDY    29  24  82 E9        30.05F WCI  20
MOBRIDGE       LGT SNOW  27  23  85 SE6       30.06F FOG     WCI  20
RAPID CITY     SUNNY     57  27  31 NW38G48   29.99S
$$

  *****  SOME WEATHER IN NEARBY STATES *****

CITY           SKY/WX    TMP DP  RH WIND       PRES   REMARKS
GLASGOW MT     CLOUDY    31  24  75 NE5       30.18R
GREAT FALLS MT SUNNY     56  15  20 NW14      30.18F
CHEYENNE WY    CLOUDY    53  24  32 NW23G38   30.12F
SCOTTSBLUFF NE CLOUDY    58  28  32 NW22      30.09F
OMAHA NE       LGT SNOW  22  15  75 SE8       30.21F WCI  12
DES MOINES IA  CLOUDY    20   1  43 S6        30.27F WCI  12
DAVENPORT IA   SUNNY     22   2  42 W5        30.32F WCI  16
CHICAGO IL     MOSUNNY   20   3  48 W7        30.28F WCI  11
EAU CLAIRE WI  CLOUDY    12  -4  48 W8        30.25F WCI   0
LA CROSSE WI   SUNNY     17   0  47 SE5       30.29F WCI  10
$$

  *****  SOME NATIONAL WEATHER *****

CITY           SKY/WX    TMP DP  RH WIND       PRES   REMARKS
LA GUARDIA NY  PTSUNNY   26   4  38 NW23G33   29.92R WCI  11
RALEIGH NC     MOSUNNY   39   5  24 VRB6G20   30.16S
ATLANTA GA     SUNNY     55  24  30 CALM      30.12S
NEW ORLEANS LA MOSUNNY   76  51  41 W16G25    30.14F
OKLAHOMA CITY  MOSUNNY   60  31  33 NE10      30.13F
ALBUQUERQUE NM SUNNY     60  17  18 VRB3      30.31F
SALT LAKE CITY CLOUDY    32  27  81 NW6       30.46F HAZE
LOS ANGELES CA MOSUNNY   79  39  23 W5        30.10F
BOISE ID       MOSUNNY   42  32  67 CALM      30.38F
SEATTLE WA     CLOUDY    52  46  80 W3        30.13F
$$

*** WEATHER ACROSS MANITOBA...SASKATCHEWAN AND ONTARIO ***
                ***ONTARIO***

CITY           SKY/WX    TMP DP  RH WIND       PRES   REMARKS
GERALDTON      MOSUNNY    3  -6  66 W13G21    29.94F WCI -14
THUNDER BAY    PTSUNNY   12   1  62 W14G20    30.09F WCI  -3
SIOUX LOOKOUT  FLURRIES   9   0  66 NW15      30.01F WCI  -8
TORONTO        MOSUNNY   14  -4  44 NW17G25   30.08R WCI  -3
BIG TROUT LK   MOSUNNY  -15 -26  58 NW17      29.97S WCI -40
PICKLE LAKE    CRYSTALS   3  -9  55 W16G25    29.90F WCI -16
DRYDEN         CLOUDY     9   0  66 W16       30.04F WCI  -9
KENORA         CLOUDY     9   0  66 W9        30.10F WCI  -5
$$
                *** MANITOBA***

CITY           SKY/WX    TMP DP  RH WIND       PRES   REMARKS
BRANDON        FLURRIES  10   3  72 VRB2      30.22F
DAUPHIN        PTSUNNY    7   0  72 W3        30.28S
ISLAND LAKE    FLURRIES -11 -17  77 W10       30.12S WCI -30
PILOT MOUND      N/A      9   3  78 N8          N/A  WCI  -4
THE PAS        MOSUNNY    0  -9  65 W12       30.30F WCI -18
THOMPSON       PTSUNNY  -13 -22  64 N14G20    30.24R WCI -35
WINNIPEG       CLOUDY     9   1  72 NW10      30.24S WCI  -6
LYNN LAKE      FLURRIES -13 -22  64 NW16      30.29R WCI -37
CHURCHILL      CRYSTALS -26 -33  68 N23G35    30.22R VSB 3/4 WCI -57
GILLAM         MOSUNNY  -17 -27  58 NW15      30.18R WCI -41
$$
                ***SASKATCHEWAN***

CITY           SKY/WX    TMP DP  RH WIND       PRES   REMARKS
ESTEVAN        CLOUDY    23  14  68 N5        30.19R WCI  17
KINDERSLEY     CLOUDY    18  12  79 SE8       30.22R WCI   7
LLOYDMINSTER   LGT SNOW  14   9  79 E8        30.24S WCI   3
PRINCE ALBERT  PTSUNNY    9   0  66 N2        30.34S
REGINA         FLURRIES  18  12  79 NW13      30.23R WCI   4
YORKTON        CLOUDY     7   1  78 NW8       30.25R WCC1F1C2F2C3F3C4F4C5F5C6F6C7F7C8F8C9F9CaFaCbFbCcFcCdFdCe!


USA.gov is the U.S. government's official web portal to all federal, state and local government web resources and services.